View from above orbital plane
|
View from above satellite
|
Ground track
|
The orbit data is extracted from the following two-line orbital elements,
1 42761U 17034D 21056.45695424 .00000646 00000-0 52209-4 0 9996
2 42761 43.0181 75.8732 0009518 192.7988 313.3621 15.10165671204219
Epoch (UTC): | 25 February 2021 10:58:00 |
Eccentricity: | 0.0009518 |
inclination: | 43.0181° |
perigee height: | 529 km |
apogee height: | 542 km |
right ascension of ascending node: | 75.8732° |
argument of perigee: | 192.7988° |
revolutions per day: | 15.10165671 |
mean anomaly at epoch: | 313.3621° |
orbit number at epoch: | 20421 |
The dashed part of the orbit path shows where the satellite is in the earth's shadow,
|
|